Location: Cahas Mountain Overlook
(37.0833°N, 80.1000°W)
Time: 00:05:51
(UTC-05:00)

Vanguard 1 Rocket - Visible Passes

Search period start: 29 November 2023 00:00
Search period end: 09 December 2023 00:00
Orbit: 656 x 4218 km, 34.3° (Epoch: 28 November)

Date Brightness Start Highest point End Pass type
(mag) Time Alt. Az. Time Alt. Az. Time Alt. Az.
29 Nov 11.0 04:10:57 10° SSW 04:29:11 32° SSE 04:40:49 10° E visible
29 Nov 9.8 06:40:06 10° SW 06:57:52 59° SSE 07:06:55 10° E visible
30 Nov 11.4 02:58:59 10° S 03:15:17 23° SE 03:27:12 10° E visible
30 Nov 10.3 05:24:58 10° SW 05:44:46 49° SSE 05:55:36 10° E visible
01 Dec 11.7 01:50:25 10° SSE 02:01:08 14° SE 02:10:21 10° ESE visible
01 Dec 10.7 04:10:40 10° SSW 04:31:07 40° SSE 04:43:40 10° E visible
01 Dec 9.7 06:41:18 10° WSW 06:59:58 67° SSE 07:09:19 10° E visible
02 Dec 11.2 02:57:47 10° SSW 03:17:06 30° SE 03:30:42 10° E visible
02 Dec 10.1 05:25:40 10° SW 05:46:45 57° SSE 05:58:03 10° E visible
03 Dec 11.5 01:47:06 10° S 02:02:54 21° SE 02:15:44 10° E visible
03 Dec 10.5 04:10:50 10° SW 04:32:59 47° SSE 04:46:16 10° E visible
03 Dec 9.6 06:42:39 10° WSW 07:02:03 73° S 07:11:41 10° E visible
04 Dec 11.8 00:42:21 10° SSE 00:48:41 11° SE 00:54:40 10° ESE visible
04 Dec 10.9 02:59:21 13° SSW 03:18:49 37° SSE 03:33:39 10° E visible
04 Dec 10.0 05:26:38 10° WSW 05:48:43 65° SSE 06:00:26 10° E visible
05 Dec 11.3 01:55:23 22° SSE 02:04:29 27° SE 02:19:36 10° E visible
05 Dec 10.4 04:12:54 13° SW 04:34:47 55° SSE 04:48:43 10° E visible
05 Dec 9.6 06:44:09 10° WSW 07:04:07 77° S 07:14:02 10° E visible
06 Dec 11.6 00:50:08 17° SE 00:50:14 17° SE 01:02:32 10° ESE visible
06 Dec 10.8 03:07:35 28° SSW 03:20:26 45° SSE 03:36:17 10° E visible
06 Dec 9.9 05:27:48 10° WSW 05:50:39 71° SSE 06:02:45 10° E visible
07 Dec 11.1 02:01:40 32° SSE 02:05:56 34° SE 02:22:44 10° E visible
07 Dec 10.3 04:19:03 23° SW 04:36:33 63° SSE 04:51:02 10° E visible
07 Dec 9.6 06:45:43 10° W 07:06:11 80° S 07:16:21 10° E visible
08 Dec 11.4 00:55:21 22° SE 00:55:21 22° SE 01:07:09 10° E visible
08 Dec 10.6 03:12:42 39° SSW 03:22:00 52° SSE 03:38:42 10° E visible
08 Dec 9.9 05:30:04 12° WSW 05:52:34 76° S 06:05:02 10° E visible
